Change the Weather History Date:

Wednesday, October 6, 2010

  Actual Average Record
Temperature  
Mean Temperature 63 °F 57 °F  
Max Temperature 72 °F 69 °F 86 °F (1975)
Min Temperature 53 °F 45 °F 26 °F (1955)
Degree Days  
Heating Degree Days 2 9  
Month to date heating degree days 4 46  
Since 1 July heating degree days 38 135  
Cooling Degree Days 0 0  
Month to date cooling degree days 21 5  
Year to date cooling degree days 1142 1158  
Growing Degree Days 12 (Base 50)    
Moisture  
Dew Point 48 °F    
Average Humidity 61    
Maximum Humidity 86    
Minimum Humidity 35    
Precipitation  
Precipitation 0.07 in 0.04 in 0.64 in (1977)
Month to date precipitation 0.09 0.28  
Year to date precipitation 11.04 12.00  
Snow  
Snow 0.00 in 0.10 in T in (2011)
Month to date snowfall 0.0 0.1  
Since 1 July snowfall 0.0 0.1  
Snow Depth 0.00 in    
Sea Level Pressure  
Sea Level Pressure 30.06 in    
Wind  
Wind Speed 10 mph (South)    
Max Wind Speed 33 mph    
Max Gust Speed 41 mph    
Visibility 10 miles    
Events Rain    
T = Trace of Precipitation, MM = Missing Value Source: NWS Daily Summary

Daily Weather History Graph

Daily Weather History Graph

Search for Another Location

Airport or City:

Trip Planner

Search our weather history database for the weather conditions in past years. The results will help you decide how hot, cold, wet, or windy it might be!

Date:

Astronomy

Oct. 06, 2010 Rise Set
Actual Time 7:29 AM MDT 7:01 PM MDT
Civil Twilight 7:02 AM MDT 7:28 PM MDT
Nautical Twilight 6:30 AM MDT 8:00 PM MDT
Astronomical Twilight 5:58 AM MDT 8:32 PM MDT
Moon 6:10 AM MDT 6:06 PM MDT
Length of Visible Light 12h 26m
Length of Day
11h 32m
Waning Crescent, 2% of the Moon is Illuminated
Oct 6
Waning Crescent
Oct 7
New
Oct 14
First Quarter
Oct 22
Full
Oct 30
Last Quarter

Hourly Weather History & Observations

Time (MDT) Temp. Dew Point Humidity Pressure Visibility Wind Dir Wind Speed Gust Speed Precip Events Conditions
12:53 AM 57.9 °F 48.0 °F 70% 30.06 in 10.0 mi South 5.8 mph - N/A   Mostly Cloudy
1:53 AM 62.1 °F 46.9 °F 58% 30.05 in 10.0 mi South 4.6 mph - N/A   Mostly Cloudy
2:53 AM 64.0 °F 46.0 °F 52% 30.06 in 10.0 mi SSE 10.4 mph - 0.00 in   Overcast
3:53 AM 59.0 °F 51.1 °F 75% 30.06 in 10.0 mi SSE 5.8 mph - 0.03 in Rain Light Rain
4:53 AM 60.1 °F 52.0 °F 75% 30.06 in 10.0 mi Calm Calm - 0.01 in   Overcast
5:53 AM 60.1 °F 48.9 °F 67% 30.09 in 10.0 mi South 8.1 mph - N/A   Overcast
6:53 AM 57.0 °F 51.1 °F 81% 30.12 in 10.0 mi SSE 6.9 mph - 0.00 in   Mostly Cloudy
7:53 AM 57.0 °F 51.1 °F 81% 30.10 in 10.0 mi SSW 8.1 mph - 0.00 in   Mostly Cloudy
8:53 AM 59.0 °F 52.0 °F 78% 30.11 in 10.0 mi South 8.1 mph - N/A   Mostly Cloudy
9:53 AM 62.1 °F 48.9 °F 62% 30.10 in 10.0 mi SSE 5.8 mph - N/A   Scattered Clouds
10:53 AM 64.9 °F 46.9 °F 52% 30.10 in 10.0 mi SSW 12.7 mph - N/A   Scattered Clouds
11:53 AM 68.0 °F 46.0 °F 45% 30.08 in 10.0 mi Variable 5.8 mph - N/A   Scattered Clouds
12:53 PM 69.1 °F 43.0 °F 39% 30.07 in 10.0 mi South 10.4 mph - N/A   Mostly Cloudy
1:53 PM 70.0 °F 43.0 °F 38% 30.01 in 10.0 mi South 4.6 mph - N/A   Scattered Clouds
2:53 PM 71.1 °F 41.0 °F 34% 29.98 in 10.0 mi SW 13.8 mph - N/A   Mostly Cloudy
3:53 PM 57.9 °F 48.0 °F 70% 30.07 in 10.0 mi South 31.1 mph 40.3 mph 0.00 in Rain Light Rain
4:53 PM 57.0 °F 50.0 °F 77% 30.10 in 10.0 mi South 18.4 mph 27.6 mph 0.03 in   Mostly Cloudy
5:53 PM 57.0 °F 48.9 °F 74% 30.04 in 10.0 mi South 10.4 mph - N/A   Mostly Cloudy
6:53 PM 55.9 °F 48.0 °F 75% 30.04 in 10.0 mi SE 8.1 mph - N/A   Mostly Cloudy
7:53 PM 55.9 °F 46.9 °F 72% 30.04 in 10.0 mi SSE 8.1 mph - N/A   Scattered Clouds
8:53 PM 55.9 °F 46.0 °F 69% 30.04 in 10.0 mi South 9.2 mph - N/A   Scattered Clouds
9:53 PM 53.1 °F 46.9 °F 80% 30.04 in 10.0 mi SE 6.9 mph - N/A   Scattered Clouds
10:53 PM 55.0 °F 46.9 °F 74% 30.04 in 10.0 mi SE 8.1 mph - N/A   Mostly Cloudy
11:53 PM 57.0 °F 45.0 °F 64% 30.02 in 10.0 mi South 10.4 mph - N/A   Mostly Cloudy